Location: Newark
(47.5347°N, 5.5339°E)
Time: 09:04:57
(UTC+00:00)

ISS - Pass Details

Date: 25 September 2019
Orbit: 411 x 421 km, 51.6° (Epoch: 15 October)

Event Time Altitude Azimuth Distance (km) Brightness Sun altitude
Rises 20:10:12 0° 282° (WNW) 2,344 1.2 -26.6°
Reaches altitude 10° 20:12:23 10° 290° (WNW) 1,482 0.0 -26.9°
Enters shadow 20:13:54 22° 306° (NW) 944 -1.3 -27.2°
